FW4350 Weather Reports


Display with metric or nautical units.
time (UTC)temp
F
wind
direction
speed
MPH
gust
MPH
rain 1hr
in
rain 24hr
in
rain mn
in
humidity
%
barometer
mb
20260906123955 69 34 0.0 1.0 0.00 0.00 0.00 88 1018.8
20260906123453 69 34 0.0 2.0 0.00 0.00 0.00 89 1018.8
20260906122955 69 34 0.0 2.0 0.00 0.00 0.00 88 1018.8
20260906122452 69 34 0.0 1.0 0.00 0.00 0.00 88 1018.4
20260906121955 69 34 0.0 1.0 0.00 0.00 0.00 88 1018.4
20260906120955 69 34 0.0 1.0 0.00 0.00 0.00 88 1018.3
20260906120452 69 34 0.0 0.0 0.00 0.00 0.00 88 1018.3
20260906115952 69 34 0.0 0.0 0.00 0.00 0.00 88 1018.3
20260906115452 69 34 0.0 0.0 0.00 0.00 0.00 88 1017.9
20260906114953 69 34 0.0 0.0 0.00 0.00 0.00 87 1017.9
20260906114453 69 34 0.0 1.0 0.00 0.00 0.00 87 1017.9
20260906113953 69 34 0.0 1.0 0.00 0.00 0.00 88 1017.8
20260906112953 69 34 0.0 1.0 0.00 0.00 0.00 87 1017.8
20260906112454 69 34 0.0 2.0 0.00 0.00 0.00 87 1017.5
20260906111452 69 34 0.0 1.0 0.00 0.00 0.00 87 1017.5
20260906110954 69 34 0.0 1.0 0.00 0.00 0.00 87 1017.6
20260906110452 69 34 0.0 1.0 0.00 0.00 0.00 87 1017.6
20260906105956 69 34 0.0 1.0 0.00 0.00 0.00 87 1017.6
20260906105453 69 34 0.0 4.0 0.00 0.00 0.00 87 1017.4
20260906104453 69 34 0.0 3.0 0.00 0.00 0.00 86 1017.4
20260906103955 70 34 0.0 1.0 0.00 0.00 0.00 86 1017.2
20260906103452 70 34 0.0 1.0 0.00 0.00 0.00 86 1017.2
20260906102955 70 34 0.0 2.0 0.00 0.00 0.00 86 1017.2
20260906102452 70 34 0.0 3.0 0.00 0.00 0.00 86 1017.3
20260906101454 70 34 0.0 2.0 0.00 0.00 0.00 86 1017.3
20260906100953 70 34 0.0 2.0 0.00 0.00 0.00 86 1017.0
20260906095954 70 34 0.0 2.0 0.00 0.00 0.00 86 1017.0
20260906095453 70 34 0.0 2.0 0.00 0.00 0.00 86 1016.9
20260906094953 70 34 0.0 2.0 0.00 0.00 0.00 86 1016.9
20260906093953 70 34 0.0 3.0 0.00 0.00 0.00 86 1016.9
20260906093453 70 34 0.0 3.0 0.00 0.00 0.00 86 1016.9
20260906092452 70 34 0.0 1.0 0.00 0.00 0.00 86 1016.8
20260906091955 70 34 0.0 1.0 0.00 0.00 0.00 86 1016.8
20260906091452 70 34 0.0 1.0 0.00 0.00 0.00 85 1016.8
20260906085954 70 34 0.0 1.0 0.00 0.00 0.00 85 1016.8
20260906085452 71 34 0.0 0.0 0.00 0.00 0.00 85 1016.8
20260906084953 71 34 0.0 0.0 0.00 0.00 0.00 84 1016.8
20260906084452 71 34 0.0 0.0 0.00 0.00 0.00 84 1016.8
20260906083954 71 34 0.0 0.0 0.00 0.00 0.00 84 1016.8
20260906083452 71 34 0.0 0.0 0.00 0.00 0.00 84 1016.8
20260906082953 71 34 0.0 0.0 0.00 0.00 0.00 84 1016.8
20260906082453 71 34 0.0 0.0 0.00 0.00 0.00 84 1016.8
20260906081953 71 34 0.0 0.0 0.00 0.00 0.00 84 1016.8
20260906081453 71 34 0.0 0.0 0.00 0.00 0.00 84 1016.8
20260906080954 71 34 0.0 0.0 0.00 0.00 0.00 84 1017.0
20260906080453 71 34 0.0 0.0 0.00 0.00 0.00 84 1017.0
20260906075453 71 34 0.0 0.0 0.00 0.00 0.00 84 1016.9
20260906074954 71 34 0.0 0.0 0.00 0.00 0.00 84 1016.9
20260906074453 71 34 0.0 0.0 0.00 0.00 0.00 84 1016.9
20260906073953 72 34 0.0 1.0 0.00 0.00 0.00 84 1016.9
20260906072953 72 34 0.0 0.0 0.00 0.00 0.00 84 1016.9
20260906072453 72 34 0.0 0.0 0.00 0.00 0.00 84 1017.1
20260906071953 72 34 0.0 0.0 0.00 0.00 0.00 84 1017.1
20260906070954 72 34 0.0 0.0 0.00 0.00 0.00 84 1017.1
20260906070454 72 34 0.0 0.0 0.00 0.00 0.00 84 1017.1
20260906065952 72 34 0.0 0.0 0.00 0.00 0.00 84 1017.1
20260906064953 72 23 0.0 1.0 0.00 0.00 0.00 83 1017.2
20260906064452 72 23 0.0 1.0 0.00 0.00 0.00 83 1017.2
20260906063954 72 23 0.0 1.0 0.00 0.00 0.00 83 1016.9
20260906063451 72 23 0.0 0.0 0.00 0.00 0.00 83 1016.9
20260906062951 72 23 0.0 0.0 0.00 0.00 0.00 83 1016.9
20260906062452 72 23 0.0 1.0 0.00 0.00 0.00 83 1016.9
20260906061452 72 23 0.0 2.0 0.00 0.00 0.00 83 1016.9
20260906060952 72 64 0.0 2.0 0.00 0.00 0.00 83 1017.0
20260906060451 72 53 0.0 1.0 0.00 0.00 0.00 82 1017.0
20260906055956 73 51 0.0 1.0 0.00 0.00 0.00 82 1017.0
20260906055455 73 59 0.0 1.0 0.00 0.00 0.00 82 1017.0
20260906054958 73 59 0.0 2.0 0.00 0.00 0.00 82 1017.0
20260906054457 73 61 0.0 3.0 0.00 0.00 0.00 82 1017.0
20260906053455 73 44 0.0 1.0 0.00 0.00 0.00 82 1016.9
20260906052957 73 61 0.0 4.0 0.00 0.00 0.00 82 1016.9
20260906052458 73 61 0.0 4.0 0.00 0.00 0.00 82 1016.8
20260906051956 73 42 0.0 2.0 0.00 0.00 0.00 81 1016.8
20260906051455 73 33 0.0 2.0 0.00 0.00 0.00 81 1016.8
20260906050955 73 30 0.0 2.0 0.00 0.00 0.00 81 1016.8
20260906050456 73 65 0.0 0.0 0.00 0.00 0.00 81 1016.8
20260906050006 73 74 0.0 1.0 0.00 0.00 0.00 81 1016.8
20260906045457 73 74 0.0 1.0 0.00 0.00 0.00 81 1016.8
20260906044958 73 74 0.0 3.0 0.00 0.00 0.00 81 1016.8
20260906044456 73 78 0.0 3.0 0.00 0.00 0.00 81 1016.8
20260906043458 73 5 0.0 2.0 0.00 0.00 0.00 81 1016.3
20260906042458 73 43 0.0 3.0 0.00 0.00 0.00 81 1016.2
20260906042000 73 56 0.0 2.0 0.00 0.00 0.00 81 1016.2
20260906041458 73 48 0.0 2.0 0.00 0.00 0.00 81 1016.2
20260906040958 73 54 0.0 2.0 0.00 0.00 0.00 81 1016.0
20260906040456 73 63 0.0 2.0 0.00 0.00 0.00 81 1016.0
20260906035959 73 68 0.0 2.0 0.00 0.00 0.00 81 1016.0
20260906034955 73 61 0.0 4.0 0.00 0.00 0.00 81 1015.9
20260906033956 73 9 0.0 4.0 0.00 0.00 0.00 81 1015.8
20260906032957 73 56 0.0 1.0 0.00 0.00 0.00 80 1015.8
20260906032457 73 69 0.0 3.0 0.00 0.00 0.00 80 1015.9
20260906032000 73 50 0.0 3.0 0.00 0.00 0.00 80 1015.9
20260906030955 73 37 0.0 3.0 0.00 0.00 0.00 80 1015.8
20260906030454 73 52 0.0 3.0 0.00 0.00 0.00 80 1015.8
20260906025959 73 58 0.0 2.0 0.00 0.00 0.00 79 1015.8
20260906025457 73 86 0.0 2.0 0.00 0.00 0.00 79 1015.9
20260906024957 73 69 0.0 4.0 0.00 0.00 0.00 79 1015.9
20260906023956 73 292 0.0 3.0 0.00 0.00 0.00 79 1015.8
20260906023457 74 69 0.0 4.0 0.00 0.00 0.00 79 1015.8
20260906022957 73 53 0.0 4.0 0.00 0.00 0.00 79 1015.8
20260906021957 73 28 0.0 3.0 0.00 0.00 0.00 79 1015.8
20260906021457 73 63 0.0 3.0 0.00 0.00 0.00 79 1015.8
20260906020958 74 63 0.0 4.0 0.00 0.00 0.00 79 1015.8
20260906020456 74 42 1.0 8.0 0.00 0.00 0.00 79 1015.8
20260906015958 74 36 0.0 8.0 0.00 0.00 0.00 79 1015.8
20260906015457 74 50 0.0 3.0 0.00 0.00 0.00 79 1016.0
20260906014957 74 28 1.0 5.0 0.00 0.00 0.00 79 1016.0
20260906014457 74 41 1.0 5.0 0.00 0.00 0.00 79 1016.0
20260906013958 74 74 0.0 4.0 0.00 0.00 0.00 79 1016.0
20260906013456 74 42 0.0 4.0 0.00 0.00 0.00 79 1016.0
20260906012956 74 32 1.0 4.0 0.00 0.00 0.00 79 1016.0
20260906012456 74 70 0.0 4.0 0.00 0.00 0.00 79 1016.1
20260906011958 74 48 0.0 3.0 0.00 0.00 0.00 80 1016.1
20260906011457 74 20 1.0 5.0 0.00 0.00 0.00 80 1016.1
20260906010957 74 16 1.0 5.0 0.00 0.00 0.00 80 1015.9
20260906010456 74 54 0.0 5.0 0.00 0.00 0.00 79 1015.9
20260906005456 74 24 1.0 8.0 0.00 0.00 0.00 79 1015.8
20260906004457 74 5 1.0 5.0 0.00 0.00 0.00 79 1015.8
20260906003955 74 25 1.0 5.0 0.00 0.00 0.00 78 1015.5
20260906003455 74 32 2.0 5.0 0.00 0.00 0.00 78 1015.5
20260906003000 74 48 2.0 6.0 0.00 0.00 0.00 78 1015.5
20260906002457 74 63 2.0 6.0 0.00 0.00 0.00 78 1015.3
20260906001955 74 74 1.0 6.0 0.00 0.00 0.00 78 1015.3
20260906000957 74 64 2.0 6.0 0.00 0.00 0.00 78 1015.3
20260905235958 74 53 2.0 6.0 0.00 0.00 0.00 78 1015.3
20260905235455 75 42 2.0 6.0 0.00 0.00 0.00 78 1015.3
20260905234959 75 57 2.0 7.0 0.00 0.00 0.00 76 1015.3
20260905234456 76 30 2.0 8.0 0.00 0.00 0.00 76 1015.3
20260905233958 76 34 2.0 8.0 0.00 0.00 0.00 76 1015.3
20260905233456 76 64 1.0 5.0 0.00 0.00 0.00 76 1015.3
20260905232956 76 62 2.0 6.0 0.00 0.00 0.00 76 1015.3
20260905232455 77 63 2.0 7.0 0.00 0.00 0.00 75 1015.0
20260905231957 77 5 1.0 7.0 0.00 0.00 0.00 75 1015.0
20260905231455 78 40 1.0 7.0 0.00 0.00 0.00 75 1015.0
20260905230957 78 64 2.0 7.0 0.00 0.00 0.00 74 1014.7
20260905230455 78 317 1.0 6.0 0.00 0.00 0.00 74 1014.7
20260905230000 79 67 1.0 3.0 0.00 0.00 0.00 74 1014.7
20260905225456 79 41 1.0 5.0 0.00 0.00 0.00 74 1014.7
20260905224956 79 41 2.0 5.0 0.00 0.00 0.00 73 1014.7
20260905224456 79 11 1.0 5.0 0.00 0.00 0.00 73 1014.7
20260905223959 80 70 1.0 4.0 0.00 0.00 0.00 72 1014.6
20260905223456 80 53 1.0 9.0 0.00 0.00 0.00 72 1014.6
20260905222956 80 355 1.0 9.0 0.00 0.00 0.00 72 1014.6
20260905222456 80 67 1.0 4.0 0.00 0.00 0.00 72 1014.4
20260905221957 80 49 1.0 5.0 0.00 0.00 0.00 72 1014.4
20260905221456 80 43 1.0 5.0 0.00 0.00 0.00 71 1014.4
20260905220957 80 16 1.0 5.0 0.00 0.00 0.00 72 1014.7
20260905220457 80 58 1.0 5.0 0.00 0.00 0.00 72 1014.7
20260905215955 80 22 1.0 4.0 0.00 0.00 0.00 71 1014.7
20260905214454 81 53 1.0 5.0 0.00 0.00 0.00 71 1014.3
20260905213956 81 273 0.0 4.0 0.00 0.00 0.00 71 1014.4
20260905213456 81 53 1.0 4.0 0.00 0.00 0.00 71 1014.4
20260905212954 80 288 1.0 4.0 0.00 0.00 0.00 72 1014.4
20260905212455 80 57 1.0 4.0 0.00 0.00 0.00 71 1014.4
20260905211955 80 18 0.0 4.0 0.00 0.00 0.00 71 1014.4
20260905211455 80 59 1.0 5.0 0.00 0.00 0.00 72 1014.4
20260905210956 80 24 1.0 5.0 0.00 0.00 0.00 72 1014.5
20260905210454 80 59 1.0 4.0 0.00 0.00 0.00 72 1014.5
20260905205955 80 68 1.0 3.0 0.00 0.00 0.00 73 1014.5
20260905205455 80 34 0.0 3.0 0.00 0.00 0.00 74 1014.7
20260905204956 80 49 1.0 3.0 0.00 0.00 0.00 74 1014.7
20260905204456 80 49 1.0 5.0 0.00 0.00 0.00 74 1014.7
20260905203955 79 46 1.0 5.0 0.00 0.00 0.00 75 1014.7
20260905202955 78 37 0.0 2.0 0.00 0.00 0.00 77 1014.7
20260905202455 78 13 1.0 4.0 0.00 0.00 0.00 77 1014.7
20260905201956 78 45 1.0 6.0 0.00 0.00 0.00 77 1014.7
20260905201457 78 38 1.0 6.0 0.00 0.00 0.00 77 1014.7
20260905200955 78 39 1.0 6.0 0.00 0.00 0.00 76 1014.7
20260905200455 78 26 1.0 4.0 0.00 0.00 0.00 76 1014.7
20260905195956 78 342 1.0 5.0 0.00 0.00 0.00 76 1014.7
20260905195454 79 72 1.0 5.0 0.00 0.00 0.00 76 1014.7
20260905194954 78 34 1.0 5.0 0.00 0.00 0.00 77 1014.7
20260905194456 78 34 2.0 7.0 0.00 0.00 0.00 76 1014.7
20260905193954 78 23 1.0 7.0 0.00 0.00 0.00 76 1014.8
20260905193453 79 10 1.0 5.0 0.00 0.00 0.00 77 1014.8
20260905192955 79 59 1.0 5.0 0.00 0.00 0.00 76 1014.8
20260905191957 79 37 1.0 6.0 0.00 0.00 0.00 77 1015.0
20260905190957 78 37 1.0 6.0 0.00 0.00 0.00 77 1015.0
20260905190453 79 355 2.0 7.0 0.00 0.00 0.00 76 1015.0
20260905185453 79 42 1.0 6.0 0.00 0.00 0.00 77 1015.0
20260905184954 79 12 2.0 6.0 0.00 0.00 0.00 76 1015.0
20260905184455 79 24 2.0 6.0 0.00 0.00 0.00 76 1015.0
20260905183455 80 22 1.0 5.0 0.00 0.00 0.00 75 1015.2
20260905182957 80 50 1.0 5.0 0.00 0.00 0.00 75 1015.2
20260905182456 80 55 2.0 5.0 0.00 0.00 0.00 75 1015.2
20260905181954 80 70 2.0 6.0 0.00 0.00 0.00 75 1015.2
20260905180956 80 278 1.0 5.0 0.00 0.00 0.00 74 1015.1
20260905180453 80 32 2.0 5.0 0.00 0.00 0.00 74 1015.1
20260905175957 80 63 2.0 5.0 0.00 0.00 0.00 74 1015.1
20260905175456 81 67 2.0 5.0 0.00 0.00 0.00 75 1014.9
20260905174955 81 340 2.0 10.0 0.00 0.00 0.00 74 1014.9
20260905174455 81 21 2.0 10.0 0.00 0.00 0.00 74 1014.9
20260905173956 81 45 2.0 7.0 0.00 0.00 0.00 74 1014.8
20260905173454 81 38 2.0 7.0 0.00 0.00 0.00 75 1014.8
20260905172455 80 24 1.0 4.0 0.00 0.00 0.00 74 1014.8
20260905171956 81 67 1.0 4.0 0.00 0.00 0.00 75 1014.8
20260905170955 80 39 1.0 6.0 0.00 0.00 0.00 75 1014.9
20260905165957 80 31 1.0 5.0 0.00 0.00 0.00 76 1014.9
20260905165456 80 275 1.0 5.0 0.00 0.00 0.00 75 1015.1
20260905164954 80 40 1.0 6.0 0.00 0.00 0.00 76 1015.1
20260905164455 80 13 1.0 6.0 0.00 0.00 0.00 76 1015.1
20260905163954 80 28 1.0 8.0 0.00 0.00 0.00 75 1014.9
20260905163455 81 55 1.0 8.0 0.00 0.00 0.00 74 1014.9
20260905162955 81 15 1.0 4.0 0.00 0.00 0.00 75 1014.9
20260905161455 81 55 1.0 4.0 0.00 0.00 0.00 75 1014.9
20260905160955 80 65 1.0 6.0 0.00 0.00 0.00 75 1014.8
20260905160454 80 5 1.0 6.0 0.00 0.00 0.00 76 1014.8
20260905155957 80 69 1.0 5.0 0.00 0.00 0.00 76 1014.8
20260905155454 80 49 0.0 2.0 0.00 0.00 0.00 76 1014.7
20260905154954 80 62 0.0 2.0 0.00 0.00 0.00 76 1014.7
20260905154454 79 54 1.0 4.0 0.00 0.00 0.00 78 1014.7
20260905153954 79 53 1.0 4.0 0.00 0.00 0.00 78 1014.7
20260905153455 79 75 1.0 4.0 0.00 0.00 0.00 78 1014.7
20260905152956 79 49 1.0 4.0 0.00 0.00 0.00 78 1014.7
20260905152454 78 55 1.0 4.0 0.00 0.00 0.00 79 1014.6
20260905151954 78 48 0.0 3.0 0.00 0.00 0.00 79 1014.6
20260905150954 78 63 1.0 5.0 0.00 0.00 0.00 80 1014.4
20260905150453 78 58 1.0 5.0 0.00 0.00 0.00 79 1014.4
20260905145453 78 18 1.0 3.0 0.00 0.00 0.00 80 1014.2
20260905144956 78 49 1.0 4.0 0.00 0.00 0.00 80 1014.2
20260905144454 78 42 0.0 4.0 0.00 0.00 0.00 80 1014.2
20260905143954 78 57 0.0 3.0 0.00 0.00 0.00 80 1014.3
20260905142954 78 5 1.0 6.0 0.00 0.00 0.00 81 1014.3
20260905142455 77 34 1.0 6.0 0.00 0.00 0.00 81 1014.2
20260905141955 77 45 1.0 6.0 0.00 0.00 0.00 81 1014.2
20260905141454 77 51 1.0 3.0 0.00 0.00 0.00 83 1014.2
20260905140955 77 43 1.0 5.0 0.00 0.00 0.00 83 1014.0
20260905140455 76 46 1.0 5.0 0.00 0.00 0.00 83 1014.0
20260905135954 76 20 1.0 4.0 0.00 0.00 0.00 84 1014.0
20260905135455 76 49 1.0 5.0 0.00 0.00 0.00 84 1014.1
20260905134956 75 32 1.0 5.0 0.00 0.00 0.00 85 1014.1
20260905134455 75 34 1.0 5.0 0.00 0.00 0.00 85 1014.1
20260905133956 75 26 0.0 3.0 0.00 0.00 0.00 86 1014.3
20260905132954 75 19 1.0 8.0 0.00 0.00 0.00 85 1014.3
20260905132455 75 66 1.0 3.0 0.00 0.00 0.00 85 1014.4
20260905131955 75 59 1.0 4.0 0.00 0.00 0.00 84 1014.4
20260905131454 75 26 1.0 4.0 0.00 0.00 0.00 84 1014.4
20260905130955 75 28 1.0 4.0 0.00 0.00 0.00 84 1013.8
20260905130454 75 69 1.0 3.0 0.00 0.00 0.00 84 1013.8
20260905125956 75 45 1.0 3.0 0.00 0.00 0.00 85 1013.8
20260905125453 75 59 1.0 4.0 0.00 0.00 0.00 85 1013.7
20260905124456 76 15 0.0 3.0 0.00 0.00 0.00 85 1013.7